Volver al catálogo

SL-8 DEB

ActivoLEO
NORAD 21175·DEBRIS·🇷🇺 Russia

Lanzado Feb 12, 1991 desde Plesetsk Cosmodrome

Loading…

Próximos Pases (próximas 24 horas)

TLE

ActualizadoSource: Space-Track

Época: Sep 13, 2026, 20:42 UTC

1 21175U 91009AN  26256.86276571 -.00000029  00000-0 -11346-3 0  9999
2 21175  73.9340  61.4911 0147110 338.0192 142.5662 12.28586211593308

Sigue SL-8 DEB en tiempo real con AllMySat

Download on the App Store